Location: ??????
(31.2056°N, 45.3906°E)
Time: 16:08:43
(UTC+00:00)

SEDSat Delta rocket - Pass Details

Date: 09 April 2020
Orbit: 533 x 1001 km, 31.4° (Epoch: 27 May)

Event Time Altitude Azimuth Distance (km) Brightness Sun altitude
Rises 15:52:49 0° 279° (W) 3,385 9.4 -7.0°
Reaches altitude 10° 15:55:32 10° 277° (W) 2,371 7.8 -7.6°
Maximum altitude 16:01:04 65° 196° (SSW) 788 3.6 -8.7°
Enters shadow 16:05:28 12° 115° (ESE) 1,922 4.9 -9.7°
